Flag for Austria Weather past 2 weeks in Leoben, Styria, Austria

Now
54 °F

Partly cloudy.


Feels Like: 54 °F
Forecast: 49 / 64 °F
Wind: 1 mph from North

Location: Zeltweg

Current Time: Oct 1, 2014 at 2:38:14 AM

Latest Report: Sep 30, 2014 at 10:50 PM


Visibility: 12 mi

Pressure: 30.30 "Hg

Humidity: 94%

Dew point: 52 °F

Location of LeobenLocation

Historic Weather in Leoben — Graph

°F

Leoben temperature yesterday

Maximum temperature yesterday: 73 °F (at 3:20 PM)
Minimum temperature yesterday: 43 °F (at 4:50 AM)
Average temperature yesterday: 58 °F

Past Weeks' High & Low Weather Summary

 TemperatureHumidityPressure
High75 °F (Sep 19, 3:20 PM)100% (Sep 15, 10:50 PM)30.45 "Hg (Sep 15, 10:50 PM)
Low34 °F (Sep 24, 5:50 AM)41% (Sep 22, 4:20 PM)29.89 "Hg (Sep 22, 4:50 AM)
Average57 °F75%30.14 "Hg
* Reported Sep 15 10:50 PM — Sep 30 10:50 PM, Leoben, Weather by CustomWeather, © 2014

Note: Actual official high and low records may vary slightly from our data, if they occured in-between our weather recording intervals... More about our weather records

Advertising

Leoben weather history for previous 24 hours

 ConditionsComfort  
Time TempWeatherWind HumidityBarometerVisibility
10:50 PM
Sep 30
54 °FPartly cloudy.1 mph94%30.30 "Hg12 mi
9:50 PM55 °FPassing clouds.2 mph88%30.30 "Hg12 mi
9:20 PM57 °FPassing clouds.1 mph82%30.30 "Hg12 mi
8:50 PM59 °FPassing clouds.2 mph77%30.30 "Hg12 mi
8:20 PM61 °FPassing clouds.2 mph72%30.30 "Hg12 mi
7:50 PM63 °FPassing clouds.2 mph68%30.30 "Hg16 mi
7:20 PM63 °FPartly sunny.3 mph68%30.27 "Hg19 mi
6:50 PM63 °FPartly sunny.3 mph77%30.27 "Hg19 mi
6:20 PM68 °FBroken clouds.3 mph60%30.27 "Hg25 mi
5:50 PM70 °FBroken clouds.5 mph57%30.27 "Hg25 mi
5:20 PM72 °FBroken clouds.3 mph61%30.27 "Hg25 mi
4:50 PM73 °FPartly sunny.1 mph53%30.27 "Hg25 mi
4:20 PM73 °FPartly sunny.1 mph44%30.27 "Hg25 mi
3:50 PM72 °FPartly sunny.2 mph53%30.27 "Hg25 mi
3:20 PM73 °FPartly sunny.2 mph47%30.27 "Hg25 mi
2:50 PM72 °FScattered clouds.1 mph53%30.27 "Hg25 mi
2:20 PM68 °FScattered clouds.1 mph60%30.30 "Hg25 mi
1:50 PM66 °FScattered clouds.1 mph64%30.30 "Hg25 mi
1:20 PM64 °FScattered clouds.1 mph64%30.30 "Hg25 mi
12:50 PM63 °FScattered clouds.1 mph73%30.30 "Hg25 mi
12:20 PM59 °FScattered clouds.1 mph77%30.33 "Hg25 mi
11:50 AM57 °FScattered clouds.2 mph82%30.33 "Hg25 mi
11:20 AM52 °FCool.1 mph100%30.33 "Hg19 mi
10:50 AM48 °FFog.2 mph100%30.36 "Hg1 mi
10:20 AM48 °FFog.2 mph100%30.36 "Hg1 mi
9:50 AM46 °FFog.1 mph100%30.36 "Hg0 mi
9:20 AM46 °FFog.1 mph100%30.36 "Hg0 mi
8:50 AM46 °FFog.1 mph100%30.36 "Hg0 mi
8:20 AM45 °FFog.2 mph100%30.36 "Hg0 mi
7:50 AM45 °FFog.2 mph100%30.36 "Hg0 mi
7:20 AM45 °FFog.No wind100%30.36 "Hg1 mi
6:50 AM45 °FFog.1 mph100%30.33 "Hg1 mi
5:50 AM43 °FFog.1 mph100%30.33 "Hg1 mi
4:50 AM43 °FPassing clouds.2 mph100%30.33 "Hg1 mi
Weather by CustomWeather, © 2014

See weather overviewHow to use our weather pages